Location: *
(12.5665°N, 8.3471°E)
Time: 08:51:18
(UTC+00:00)

Palapa 6 Rocket - Pass Details

Date: 23 September 2019
Orbit: 485 x 1218 km, 22.7° (Epoch: 14 October)

Event Time Altitude Azimuth Distance (km) Brightness Sun altitude
Exits shadow 04:29:07 19° 262° (W) 1,202 3.9 -12.2°
Maximum altitude 04:31:20 38° 202° (SSW) 763 3.3 -11.7°
Drops below altitude 10° 04:35:06 10° 133° (SE) 1,781 6.1 -10.7°
Sets 04:37:37 0° 125° (SE) 2,761 7.3 -10.1°
